Salisbury, MD

12:58 PM EDT on September 30, 2016 (GMT -0400)
Salisbury-Ocean City Wicomico Regional

Weather History for KSBY - April, 2014

Change the Weather History Date:

Tuesday, April 8, 2014

  Actual Average Record
Temperature  
Mean Temperature 61 °F 52 °F  
Max Temperature 68 °F 63 °F 85 °F (1991)
Min Temperature 53 °F 41 °F 25 °F (2007)
Degree Days  
Heating Degree Days 4 13  
Month to date heating degree days 85 116  
Since 1 July heating degree days 3914 4051  
Cooling Degree Days 0 0  
Month to date cooling degree days 0 0  
Year to date cooling degree days 0 2  
Growing Degree Days 10 (Base 50)    
Moisture  
Dew Point 55 °F    
Average Humidity 67    
Maximum Humidity 93    
Minimum Humidity 40    
Precipitation  
Precipitation 0.04 in 0.14 in 2.09 in (1964)
Month to date precipitation 0.22 1.07  
Year to date precipitation 6.77 12.45  
Snow  
Snow 0.00 in 0.00 in 0.60 in (1972)
Month to date snowfall 0.0 0.1  
Since 1 July snowfall 22.5 9.2  
Snow Depth 0.00 in    
Sea Level Pressure  
Sea Level Pressure 29.57 in    
Wind  
Wind Speed 10 mph (WSW)    
Max Wind Speed 18 mph    
Max Gust Speed 25 mph    
Visibility 8 miles    
Events Rain    
T = Trace of Precipitation, MM = Missing Value Source: NWS Daily Summary

Daily Weather History Graph

Daily Weather History Graph

Search for Another Location

Airport or City:

Trip Planner

Search our weather history database for the weather conditions in past years. The results will help you decide how hot, cold, wet, or windy it might be!

Date:

Astronomy

Apr. 08, 2014 Rise Set
Actual Time 6:36 AM EDT 7:31 PM EDT
Civil Twilight 6:09 AM EDT 7:58 PM EDT
Nautical Twilight 5:37 AM EDT 8:30 PM EDT
Astronomical Twilight 5:04 AM EDT 9:04 PM EDT
Moon 1:27 PM EDT (4/8) 2:43 AM EDT (4/8)
Length of Visible Light 13h 49m
Length of Day
12h 55m
Waxing Gibbous, 62% of the Moon is Illuminated
Apr 8
Waxing Gibbous
Apr 15
Full
Apr 22
Last Quarter
Apr 29
New
May 6
First Quarter

Hourly Weather History & Observations

Time (EDT) Temp. Dew Point Humidity Pressure Visibility Wind Dir Wind Speed Gust Speed Precip Events Conditions
12:54 AM 59.0 °F 55.9 °F 90% 29.67 in 4.0 mi Calm Calm - 0.00 in   Partly Cloudy
1:54 AM 60.1 °F 57.0 °F 90% 29.64 in 7.0 mi SSE 4.6 mph - N/A   Overcast
2:54 AM 60.1 °F 57.0 °F 90% 29.60 in 7.0 mi SSE 4.6 mph - 0.00 in Rain Light Rain
3:31 AM 60.8 °F 57.2 °F 88% 29.56 in 8.0 mi SSE 4.6 mph - 0.00 in   Overcast
3:54 AM 62.1 °F 57.9 °F 86% 29.56 in 8.0 mi SSE 4.6 mph - 0.00 in   Overcast
4:54 AM 64.0 °F 60.1 °F 87% 29.54 in 8.0 mi South 11.5 mph - 0.00 in Rain Light Rain
5:47 AM 64.4 °F 60.8 °F 88% 29.52 in 7.0 mi SSW 11.5 mph - 0.00 in Rain Light Rain
5:54 AM 64.9 °F 61.0 °F 87% 29.53 in 4.0 mi WSW 9.2 mph - 0.01 in Rain Light Rain
6:01 AM 64.4 °F 62.6 °F 94% 29.52 in 3.0 mi SW 10.4 mph 18.4 mph 0.00 in Rain Light Rain
6:08 AM 64.4 °F 62.6 °F 94% 29.53 in 6.0 mi SSW 16.1 mph 25.3 mph 0.01 in Rain Light Rain
6:22 AM 64.4 °F 62.6 °F 94% 29.52 in 2.5 mi SW 13.8 mph - 0.03 in Rain Light Rain
6:26 AM 64.4 °F 62.6 °F 94% 29.52 in 3.0 mi SSW 15.0 mph - 0.03 in Rain Light Rain
6:37 AM 64.4 °F 62.6 °F 94% 29.52 in 6.0 mi SSW 16.1 mph 21.9 mph 0.03 in Rain Light Rain
6:54 AM 64.9 °F 62.1 °F 90% 29.53 in 10.0 mi SSW 17.3 mph 23.0 mph 0.03 in   Overcast
7:54 AM 66.0 °F 62.1 °F 87% 29.53 in 10.0 mi SSW 12.7 mph 19.6 mph N/A   Overcast
8:35 AM 64.4 °F 62.6 °F 94% 29.52 in 10.0 mi SSW 12.7 mph - N/A   Overcast
8:54 AM 64.9 °F 62.1 °F 90% 29.53 in 10.0 mi SSW 12.7 mph - N/A   Overcast
9:32 AM 66.2 °F 62.6 °F 88% 29.53 in 10.0 mi SW 10.4 mph - N/A   Overcast
9:54 AM 66.9 °F 62.1 °F 84% 29.53 in 10.0 mi SW 10.4 mph - N/A   Overcast
10:54 AM 66.9 °F 61.0 °F 81% 29.54 in 10.0 mi SW 13.8 mph - N/A   Mostly Cloudy
11:01 AM 66.2 °F 60.8 °F 83% 29.53 in 10.0 mi WSW 12.7 mph 21.9 mph N/A   Partly Cloudy
11:54 AM 66.9 °F 59.0 °F 76% 29.54 in 10.0 mi WSW 11.5 mph - N/A   Partly Cloudy
12:54 PM 66.0 °F 55.9 °F 70% 29.55 in 10.0 mi WSW 13.8 mph - N/A   Clear
1:54 PM 64.9 °F 53.1 °F 65% 29.57 in 10.0 mi WNW 13.8 mph - N/A   Mostly Cloudy
2:54 PM 64.0 °F 51.1 °F 63% 29.57 in 10.0 mi NW 8.1 mph - N/A   Mostly Cloudy
3:54 PM 64.9 °F 46.0 °F 50% 29.57 in 10.0 mi WNW 10.4 mph - N/A   Scattered Clouds
4:54 PM 64.9 °F 42.1 °F 43% 29.57 in 10.0 mi WNW 9.2 mph - N/A   Clear
5:54 PM 64.0 °F 39.9 °F 41% 29.59 in 10.0 mi NW 15.0 mph - N/A   Clear
6:54 PM 63.0 °F 39.0 °F 41% 29.62 in 10.0 mi WNW 6.9 mph - N/A   Clear
7:54 PM 60.1 °F 41.0 °F 49% 29.63 in 10.0 mi NW 8.1 mph - N/A   Clear
8:54 PM 55.9 °F 41.0 °F 57% 29.65 in 10.0 mi NNW 6.9 mph - N/A   Clear
9:54 PM 55.0 °F 39.9 °F 57% 29.67 in 10.0 mi NW 6.9 mph - N/A   Clear
10:54 PM 55.0 °F 39.0 °F 55% 29.66 in 10.0 mi NNW 9.2 mph - N/A   Clear
11:54 PM 55.0 °F 37.9 °F 53% 29.67 in 10.0 mi NNW 10.4 mph - N/A   Clear